sat.trackr.live / text

‹ back to catalog

FLOCK 4G-18

NORAD 62680 · 2025-009BZ

PAYLOAD ACTIVE UNKNOWN

§ Identity

Operator
Country
US
Launch date
2025-01-14
Launch site
AFWTR
Launch vehicle
Mass (kg)
RCS (m²)

Purposes: earth_obs

External: N2YO · Heavens-Above · Gunter

§ Orbital elements

Epoch: 2026-09-19T10:43:09.981984Z

Period
93.71 min
Inclination
97.3940°
Eccentricity
0.0003840
Mean motion
15.36730975 rev/d
Perigee alt
453.2 km
Apogee alt
458.4 km
Semi-major
6,833.9 km
B*
9.1547e-4
RAAN
344.2746°
Arg perigee
359.1231°
Mean anomaly
1.0006°
Rev number
15,098

§ Raw data

FLOCK 4G-181 62680U 25009BZ  26262.44664331  .00032875  00000+0  91547-3 0  99902 62680  97.3940 344.2746 0003840 359.1231   1.0006 15.36730975150981

JSON: /api/v1/satellites/62680 · /tle

For live sub-satellite position, see the globe view (requires WebGL).

§ Visibility from observer

Set your observer location to see the next 7 days of passes ≥ 10°. The values pass through the URL so the page stays shareable.

No JS? Fill the form by hand. The geolocation button needs JavaScript.